M I D A S
Marine Information and Data Acquisition System
Tripno 1538 of the Zeeleeuw from 2008-08-18 07:18:26 to 2008-08-18 15:57:06
Back to CruiseResearch ActivitiesStationsMapUnderway DataData graphs

EquipmentUnitsComments
TimeDGPSUTC
LatitudeDGPSDM.mWGS84
LongitudeDGPSDM.mWGS84
SpeedMeteo Stationm/sRelative wind speed
DirectionMeteo StationdegRelative wind direction
TemperatureMeteo Stationdeg CelciusAir temperature
PressureMeteo StationPaAtmospheric pressure
HumidityMeteo Station%Relative humidity
Missing or incorrect values are displayed as -999
Metereological data collected by the RV Zeeleeuw from 2008-08-18 07:16:45 to 2008-08-18 15:57:41
                                                                                    Next 1000 lines
Time Latitude Longitude Speed Direction Temperature Pressure Humidity
2008-08-18 07:16:55 51°13.624 2°56.046 -999 -999 -999 -999 -999
2008-08-18 07:17:00 51°13.625 2°56.044 -999 -999 -999 -999 -999
2008-08-18 07:17:05 51°13.626 2°56.041 -999 -999 -999 -999 -999
2008-08-18 07:17:10 51°13.627 2°56.037 -999 -999 -999 -999 -999
2008-08-18 07:17:15 51°13.629 2°56.033 -999 -999 -999 -999 -999
2008-08-18 07:17:21 51°13.631 2°56.028 -999 -999 -999 -999 -999
2008-08-18 07:17:25 51°13.632 2°56.023 -999 -999 -999 -999 -999
2008-08-18 07:17:30 51°13.633 2°56.018 -999 -999 -999 -999 -999
2008-08-18 07:17:36 51°13.635 2°56.011 -999 -999 -999 -999 -999
2008-08-18 07:17:41 51°13.637 2°56.005 -999 -999 -999 -999 -999
2008-08-18 07:17:46 51°13.639 2°55.998 -999 -999 -999 -999 -999
2008-08-18 07:17:50 51°13.641 2°55.993 -999 -999 -999 -999 -999
2008-08-18 07:17:55 51°13.643 2°55.986 -999 -999 -999 -999 -999
2008-08-18 07:18:01 51°13.645 2°55.978 -999 -999 -999 -999 -999
2008-08-18 07:18:06 51°13.646 2°55.97 -999 -999 -999 -999 -999
2008-08-18 07:18:10 51°13.648 2°55.964 -999 -999 -999 -999 -999
2008-08-18 07:18:15 51°13.65 2°55.956 -999 -999 -999 -999 -999
2008-08-18 07:18:21 51°13.652 2°55.947 -999 -999 -999 -999 -999
2008-08-18 07:18:26 51°13.653 2°55.939 -999 -999 -999 -999 -999
2008-08-18 07:18:30 51°13.655 2°55.932 -999 -999 -999 -999 -999
2008-08-18 07:18:35 51°13.657 2°55.924 -999 -999 -999 -999 -999
2008-08-18 07:18:40 51°13.659 2°55.915 -999 -999 -999 -999 -999
2008-08-18 07:18:46 51°13.661 2°55.905 -999 -999 -999 -999 -999
2008-08-18 07:18:51 51°13.664 2°55.896 -999 -999 -999 -999 -999
2008-08-18 07:18:56 51°13.667 2°55.887 -999 -999 -999 -999 -999
2008-08-18 07:19:00 51°13.669 2°55.88 -999 -999 -999 -999 -999
2008-08-18 07:19:05 51°13.672 2°55.871 -999 -999 -999 -999 -999
2008-08-18 07:19:11 51°13.676 2°55.861 -999 -999 -999 -999 -999
2008-08-18 07:19:16 51°13.679 2°55.852 -999 -999 -999 -999 -999
2008-08-18 07:19:21 51°13.683 2°55.844 -999 -999 -999 -999 -999
2008-08-18 07:19:25 51°13.686 2°55.837 3.1 25 -999 -999 -999
2008-08-18 07:19:31 51°13.69 2°55.827 3 11 -999 -999 -999
2008-08-18 07:19:36 51°13.694 2°55.819 1.9 20 -999 -999 -999
2008-08-18 07:19:41 51°13.699 2°55.811 1.8 23 -999 -999 -999
2008-08-18 07:19:46 51°13.703 2°55.803 1.6 16 16.3 -999 79
2008-08-18 07:19:50 51°13.707 2°55.796 2.7 11 16.3 -999 79
2008-08-18 07:19:56 51°13.712 2°55.786 2.4 14 16.2 -999 80
2008-08-18 07:20:01 51°13.717 2°55.778 3.4 7 16.2 -999 80
2008-08-18 07:20:06 51°13.721 2°55.77 2.8 10 16.2 100650 80
2008-08-18 07:20:10 51°13.725 2°55.763 1.7 4 16.2 100650 80
2008-08-18 07:20:15 51°13.73 2°55.755 2.5 26 16.2 100650 80
2008-08-18 07:20:21 51°13.736 2°55.746 3 25 16.2 100650 80
2008-08-18 07:20:26 51°13.741 2°55.738 2.9 26 16.2 100650 80
2008-08-18 07:20:30 51°13.745 2°55.732 2.6 16 16.2 100650 80
2008-08-18 07:20:35 51°13.75 2°55.725 2.1 18 16.2 100650 80
2008-08-18 07:20:41 51°13.757 2°55.716 2 8 16.2 100650 80
2008-08-18 07:20:46 51°13.762 2°55.709 1.4 4 16.2 100650 80
2008-08-18 07:20:51 51°13.768 2°55.701 1.1 -999 16.2 100650 80
2008-08-18 07:20:55 51°13.772 2°55.696 1.6 -999 16.2 100650 80
2008-08-18 07:21:00 51°13.778 2°55.689 1.6 350 16.2 100650 80
2008-08-18 07:21:06 51°13.785 2°55.681 3.3 281 16.2 100650 80
2008-08-18 07:21:10 51°13.79 2°55.675 2.3 347 16.2 100650 80
2008-08-18 07:21:15 51°13.796 2°55.669 2.1 285 16.2 100650 80
2008-08-18 07:21:20 51°13.802 2°55.662 2.4 347 16.2 100650 80
2008-08-18 07:21:25 51°13.808 2°55.656 2.3 286 16.2 100650 80
2008-08-18 07:21:31 51°13.815 2°55.65 2.4 337 16.2 100650 80
2008-08-18 07:21:36 51°13.821 2°55.645 2.8 278 16.2 100650 80
2008-08-18 07:21:41 51°13.827 2°55.64 3.7 321 16.2 100650 80
2008-08-18 07:21:45 51°13.832 2°55.638 3.9 281 16.2 100650 80
2008-08-18 07:21:51 51°13.839 2°55.634 2.9 320 16.2 100650 80
2008-08-18 07:21:56 51°13.845 2°55.631 4 279 16.2 100650 80
2008-08-18 07:22:01 51°13.851 2°55.63 2.4 333 16.2 100650 80
2008-08-18 07:22:06 51°13.857 2°55.629 1.7 330 16.2 100650 80
2008-08-18 07:22:10 51°13.862 2°55.628 4.2 319 16.2 100650 80
2008-08-18 07:22:16 51°13.87 2°55.629 4.1 279 16.2 100650 80
2008-08-18 07:22:21 51°13.876 2°55.63 3.7 34 16.2 100650 80
2008-08-18 07:22:26 51°13.882 2°55.632 4.6 286 16.2 100650 80
2008-08-18 07:22:30 51°13.886 2°55.633 3.5 33 16.2 100650 80
2008-08-18 07:22:35 51°13.892 2°55.636 3.2 278 16.2 100650 80
2008-08-18 07:22:41 51°13.899 2°55.64 4 240 16.2 100650 80
2008-08-18 07:22:46 51°13.904 2°55.643 5.5 281 16.2 100650 80
2008-08-18 07:22:50 51°13.908 2°55.646 5.5 32 16.2 100650 80
2008-08-18 07:22:55 51°13.912 2°55.65 4.1 278 16.2 100650 80
2008-08-18 07:23:01 51°13.917 2°55.654 5.1 240 16.2 100650 80
2008-08-18 07:23:06 51°13.921 2°55.658 5.3 28 16.2 100650 80
2008-08-18 07:23:11 51°13.924 2°55.661 4.4 237 16.2 100650 80
2008-08-18 07:23:15 51°13.926 2°55.662 3.3 285 16.2 100650 80
2008-08-18 07:23:20 51°13.928 2°55.663 3.4 251 16.2 100650 80
2008-08-18 07:23:25 51°13.929 2°55.663 4.6 284 16.2 100650 80
2008-08-18 07:23:30 51°13.929 2°55.661 6 250 16.2 100650 80
2008-08-18 07:23:34 51°13.929 2°55.658 7 285 16.2 100650 80
2008-08-18 07:23:39 51°13.929 2°55.654 5.9 247 16.2 100650 80
2008-08-18 07:23:44 51°13.929 2°55.648 4.3 279 16.2 100650 80
2008-08-18 07:23:49 51°13.93 2°55.642 5.9 253 16.2 100650 80
2008-08-18 07:23:54 51°13.932 2°55.635 2.2 282 16.2 100650 80
2008-08-18 07:23:58 51°13.933 2°55.629 4.7 270 16.2 100650 80
2008-08-18 07:24:03 51°13.936 2°55.621 4.4 280 16.3 100640 79
2008-08-18 07:24:08 51°13.94 2°55.613 3.8 270 16.3 100640 79
2008-08-18 07:24:13 51°13.944 2°55.604 2.8 284 16.3 100640 79
2008-08-18 07:24:18 51°13.95 2°55.595 2 267 16.3 100640 79
2008-08-18 07:24:22 51°13.954 2°55.587 2.3 280 16.3 100650 80
2008-08-18 07:24:27 51°13.961 2°55.578 2.4 261 16.3 100650 80
2008-08-18 07:24:32 51°13.967 2°55.568 2.7 277 16.3 100650 80
2008-08-18 07:24:37 51°13.975 2°55.558 2.5 248 16.3 100650 80
2008-08-18 07:24:42 51°13.982 2°55.549 3.8 278 16.3 100640 79
2008-08-18 07:24:47 51°13.991 2°55.54 1.9 251 16.3 100640 79
2008-08-18 07:24:52 51°13.999 2°55.53 1.9 278 16.3 100650 79
2008-08-18 07:24:57 51°14.008 2°55.52 2.7 37 16.3 100650 79
2008-08-18 07:25:02 51°14.017 2°55.511 1.6 281 16.3 100650 79
2008-08-18 07:25:07 51°14.026 2°55.502 3.5 254 16.3 100650 79
2008-08-18 07:25:12 51°14.035 2°55.492 3.4 286 16.3 100650 80
2008-08-18 07:25:17 51°14.045 2°55.482 2.2 256 16.3 100650 80
2008-08-18 07:25:22 51°14.054 2°55.473 2.6 280 16.3 100650 79
2008-08-18 07:25:27 51°14.064 2°55.464 2.2 241 16.3 100650 79
2008-08-18 07:25:31 51°14.072 2°55.456 2.1 280 16.3 100640 79
2008-08-18 07:25:37 51°14.083 2°55.445 1.7 30 16.3 100640 79
2008-08-18 07:25:42 51°14.093 2°55.436 2.3 283 16.3 100650 79
2008-08-18 07:25:47 51°14.103 2°55.427 1.7 320 16.3 100650 79
2008-08-18 07:25:52 51°14.113 2°55.418 2.2 280 16.3 100650 79
2008-08-18 07:25:57 51°14.123 2°55.409 2.8 239 16.3 100650 79
2008-08-18 07:26:02 51°14.133 2°55.399 1.9 22 16.3 100650 79
2008-08-18 07:26:07 51°14.142 2°55.39 1.8 264 16.3 100650 79
2008-08-18 07:26:12 51°14.152 2°55.38 1.5 284 16.3 100650 79
2008-08-18 07:26:17 51°14.162 2°55.371 1.6 41 16.3 100650 79
2008-08-18 07:26:22 51°14.172 2°55.361 1.2 81 16.3 100650 79
2008-08-18 07:26:27 51°14.181 2°55.351 1.4 42 16.3 100650 79
2008-08-18 07:26:32 51°14.191 2°55.341 1.2 285 16.3 100650 79
2008-08-18 07:26:37 51°14.2 2°55.33 1.2 341 16.3 100650 79
2008-08-18 07:26:42 51°14.21 2°55.319 1.8 277 16.3 100650 79
2008-08-18 07:26:47 51°14.219 2°55.308 2.3 237 16.3 100650 79
2008-08-18 07:26:52 51°14.227 2°55.295 3.3 279 16.3 100650 79
2008-08-18 07:26:57 51°14.236 2°55.283 3.1 254 16.3 100650 79
2008-08-18 07:27:02 51°14.245 2°55.27 2.8 285 16.3 100650 79
2008-08-18 07:27:07 51°14.253 2°55.257 2.2 245 16.3 100650 79
2008-08-18 07:27:11 51°14.26 2°55.247 2.7 286 16.3 100650 79
2008-08-18 07:27:17 51°14.27 2°55.23 4.6 31 16.3 100650 79
2008-08-18 07:27:22 51°14.278 2°55.217 3.1 279 16.3 100650 79
2008-08-18 07:27:27 51°14.286 2°55.203 3.7 317 16.3 100650 79
2008-08-18 07:27:31 51°14.292 2°55.192 3.3 283 16.3 100650 79
2008-08-18 07:27:37 51°14.302 2°55.175 3.3 318 16.3 100650 79
2008-08-18 07:27:42 51°14.309 2°55.161 3.5 281 16.3 100650 79
2008-08-18 07:27:47 51°14.317 2°55.146 6.2 248 16.3 100650 79
2008-08-18 07:27:52 51°14.325 2°55.132 4.8 279 16.3 100650 79
2008-08-18 07:27:57 51°14.332 2°55.117 5.1 237 16.3 100650 79
2008-08-18 07:28:02 51°14.339 2°55.102 4.6 279 16.3 100650 79
2008-08-18 07:28:07 51°14.346 2°55.087 3.4 40 16.3 100650 79
2008-08-18 07:28:12 51°14.353 2°55.072 4 280 16.3 100640 79
2008-08-18 07:28:17 51°14.359 2°55.056 4.3 319 16.3 100640 79
2008-08-18 07:28:22 51°14.365 2°55.041 4.6 279 16.3 100650 79
2008-08-18 07:28:27 51°14.371 2°55.024 8.5 232 16.3 100650 79
2008-08-18 07:28:32 51°14.376 2°55.008 5.9 283 16.3 100640 79
2008-08-18 07:28:37 51°14.379 2°54.991 5.3 244 16.3 100640 79
2008-08-18 07:28:42 51°14.383 2°54.973 3.9 279 16.3 100650 79
2008-08-18 07:28:47 51°14.386 2°54.955 4.7 239 16.3 100650 79
2008-08-18 07:28:52 51°14.388 2°54.935 5.8 283 16.3 100640 79
2008-08-18 07:28:57 51°14.389 2°54.915 6.5 39 16.3 100640 79
2008-08-18 07:29:02 51°14.389 2°54.894 9.5 284 16.3 100640 79
2008-08-18 07:29:07 51°14.39 2°54.872 7.3 245 16.3 100640 79
2008-08-18 07:29:12 51°14.39 2°54.85 8.9 279 16.3 100640 79
2008-08-18 07:29:17 51°14.389 2°54.827 8.4 39 16.3 100640 79
2008-08-18 07:29:22 51°14.388 2°54.804 8.2 279 16.3 100640 79
2008-08-18 07:29:27 51°14.386 2°54.781 10.2 33 16.3 100640 79
2008-08-18 07:29:32 51°14.384 2°54.757 12.8 283 16.3 100640 79
2008-08-18 07:29:37 51°14.382 2°54.734 11.8 31 16.3 100640 79
2008-08-18 07:29:42 51°14.379 2°54.71 9.8 282 16.3 100630 79
2008-08-18 07:29:47 51°14.376 2°54.686 10.3 35 16.3 100630 79
2008-08-18 07:29:52 51°14.373 2°54.662 9.2 283 16.3 100630 79
2008-08-18 07:29:57 51°14.369 2°54.638 10.8 32 16.3 100630 79
2008-08-18 07:30:02 51°14.364 2°54.615 9 279 16.3 100620 79
2008-08-18 07:30:07 51°14.359 2°54.591 11.5 39 16.3 100620 79
2008-08-18 07:30:12 51°14.354 2°54.568 11.6 285 16.3 100620 79
2008-08-18 07:30:17 51°14.348 2°54.546 12.4 35 16.3 100620 79
2008-08-18 07:30:22 51°14.343 2°54.522 11.9 281 16.3 100620 79
2008-08-18 07:30:27 51°14.337 2°54.499 12.1 32 16.3 100620 79
2008-08-18 07:30:32 51°14.331 2°54.476 11.3 278 16.4 100620 79
2008-08-18 07:30:37 51°14.326 2°54.453 11.3 41 16.4 100620 79
2008-08-18 07:30:42 51°14.321 2°54.429 10.8 278 16.4 100610 79
2008-08-18 07:30:47 51°14.316 2°54.405 9.7 36 16.4 100610 79
2008-08-18 07:30:52 51°14.31 2°54.381 10 280 16.3 100610 79
2008-08-18 07:30:57 51°14.304 2°54.357 10.2 37 16.3 100610 79
2008-08-18 07:31:02 51°14.299 2°54.334 13 26 16.3 100610 78
2008-08-18 07:31:07 51°14.293 2°54.31 14.1 37 16.3 100610 78
2008-08-18 07:31:12 51°14.287 2°54.286 11.8 280 16.3 100620 79
2008-08-18 07:31:17 51°14.282 2°54.263 13.7 35 16.3 100620 79
2008-08-18 07:31:22 51°14.276 2°54.239 12.9 287 16.3 100620 79
2008-08-18 07:31:27 51°14.27 2°54.215 13.5 33 16.3 100620 79
2008-08-18 07:31:31 51°14.265 2°54.196 13.4 285 16.3 100610 79
2008-08-18 07:31:37 51°14.258 2°54.168 14 316 16.3 100610 79
2008-08-18 07:31:42 51°14.252 2°54.144 12.9 281 16.3 100610 79
2008-08-18 07:31:47 51°14.246 2°54.121 13.4 315 16.3 100610 79
2008-08-18 07:31:52 51°14.239 2°54.097 13 286 16.4 100610 79
2008-08-18 07:31:57 51°14.233 2°54.074 12.2 34 16.4 100610 79
2008-08-18 07:32:02 51°14.226 2°54.051 9.1 280 16.4 100610 79
2008-08-18 07:32:07 51°14.22 2°54.027 11.9 316 16.4 100610 79
2008-08-18 07:32:12 51°14.213 2°54.004 13.2 282 16.4 100620 80
2008-08-18 07:32:17 51°14.207 2°53.981 12.7 32 16.4 100620 80
2008-08-18 07:32:22 51°14.2 2°53.958 10 278 16.4 100620 79
2008-08-18 07:32:27 51°14.194 2°53.934 10.1 33 16.4 100620 79
2008-08-18 07:32:31 51°14.189 2°53.915 9.7 281 16.4 100620 79
2008-08-18 07:32:37 51°14.181 2°53.887 11.4 35 16.4 100620 79
2008-08-18 07:32:42 51°14.175 2°53.863 11.7 281 16.4 100620 79
2008-08-18 07:32:47 51°14.168 2°53.84 10.7 37 16.4 100620 79
2008-08-18 07:32:52 51°14.161 2°53.816 10.4 281 16.3 100620 79
2008-08-18 07:32:57 51°14.154 2°53.793 9.9 38 16.3 100620 79
2008-08-18 07:33:02 51°14.148 2°53.769 12.7 26 16.3 100610 79
2008-08-18 07:33:07 51°14.141 2°53.746 13.7 33 16.3 100610 79
2008-08-18 07:33:12 51°14.134 2°53.722 12.6 278 16.3 100610 79
2008-08-18 07:33:17 51°14.127 2°53.699 14.6 38 16.3 100610 79
2008-08-18 07:33:22 51°14.12 2°53.675 11.8 281 16.3 100610 79
2008-08-18 07:33:27 51°14.113 2°53.652 10.7 37 16.3 100610 79
2008-08-18 07:33:31 51°14.107 2°53.633 11.1 282 16.3 100610 79
2008-08-18 07:33:37 51°14.098 2°53.605 10.9 38 16.3 100610 79
2008-08-18 07:33:42 51°14.091 2°53.582 13.3 286 16.3 100600 79
2008-08-18 07:33:47 51°14.084 2°53.559 10.6 37 16.3 100600 79
2008-08-18 07:33:52 51°14.077 2°53.535 12.5 281 16.3 100610 79
2008-08-18 07:33:57 51°14.07 2°53.511 11.3 35 16.3 100610 79
2008-08-18 07:34:02 51°14.063 2°53.488 14.1 282 16.3 100620 79
2008-08-18 07:34:07 51°14.056 2°53.464 14.1 37 16.3 100620 79
2008-08-18 07:34:12 51°14.05 2°53.44 10.6 280 16.3 100610 80
2008-08-18 07:34:17 51°14.043 2°53.417 11.6 37 16.3 100610 80
2008-08-18 07:34:22 51°14.036 2°53.393 10.6 281 16.4 100620 80
2008-08-18 07:34:27 51°14.029 2°53.369 13.9 33 16.4 100620 80
2008-08-18 07:34:32 51°14.023 2°53.345 13.6 282 16.3 100620 79
2008-08-18 07:34:37 51°14.016 2°53.321 10.7 234 16.3 100620 79
2008-08-18 07:34:42 51°14.01 2°53.297 12.2 282 16.3 100620 80
2008-08-18 07:34:47 51°14.003 2°53.274 12.8 36 16.3 100620 80
2008-08-18 07:34:52 51°13.996 2°53.25 10.4 281 16.3 100610 79
2008-08-18 07:34:57 51°13.989 2°53.226 13.1 36 16.3 100610 79
2008-08-18 07:35:02 51°13.982 2°53.202 11.2 28 16.3 100610 80
2008-08-18 07:35:07 51°13.975 2°53.179 11.6 232 16.3 100610 80
2008-08-18 07:35:12 51°13.968 2°53.155 12.6 280 16.3 100610 80
2008-08-18 07:35:17 51°13.961 2°53.131 11.7 32 16.3 100610 80
2008-08-18 07:35:22 51°13.954 2°53.107 13.9 281 16.3 100610 80
2008-08-18 07:35:27 51°13.947 2°53.083 12.6 36 16.3 100610 80
2008-08-18 07:35:32 51°13.941 2°53.06 13.6 284 16.4 100610 80
2008-08-18 07:35:37 51°13.934 2°53.036 12.8 38 16.4 100610 80
2008-08-18 07:35:42 51°13.927 2°53.012 11.5 285 16.3 100610 80
2008-08-18 07:35:47 51°13.92 2°52.988 11.8 315 16.3 100610 80
2008-08-18 07:35:52 51°13.913 2°52.964 11.6 283 16.3 100610 80
2008-08-18 07:35:57 51°13.905 2°52.94 12.7 38 16.3 100610 80
2008-08-18 07:36:02 51°13.898 2°52.917 15.1 316 16.3 100610 80
2008-08-18 07:36:07 51°13.891 2°52.893 13 37 16.3 100610 80
2008-08-18 07:36:12 51°13.884 2°52.869 12.9 282 16.3 100610 80
2008-08-18 07:36:17 51°13.877 2°52.845 14.1 37 16.3 100610 80
2008-08-18 07:36:22 51°13.87 2°52.821 13.5 284 16.3 100610 80
2008-08-18 07:36:27 51°13.863 2°52.798 15 37 16.3 100610 80
2008-08-18 07:36:31 51°13.857 2°52.779 14.2 283 16.3 100610 79
2008-08-18 07:36:37 51°13.849 2°52.75 14.8 233 16.3 100610 79
2008-08-18 07:36:42 51°13.842 2°52.726 11.8 281 16.3 100610 80
2008-08-18 07:36:47 51°13.835 2°52.702 11.1 35 16.3 100610 80
2008-08-18 07:36:52 51°13.828 2°52.678 11.3 277 16.3 100610 79
2008-08-18 07:36:57 51°13.821 2°52.655 14.1 37 16.3 100610 79
2008-08-18 07:37:02 51°13.813 2°52.631 13.3 24 16.3 100610 79
2008-08-18 07:37:07 51°13.806 2°52.607 11.7 39 16.3 100610 79
2008-08-18 07:37:11 51°13.801 2°52.588 15.4 285 16.3 100610 80
2008-08-18 07:37:17 51°13.792 2°52.559 13.7 34 16.3 100610 80
2008-08-18 07:37:22 51°13.785 2°52.535 10.4 284 16.3 100610 80
2008-08-18 07:37:27 51°13.778 2°52.512 12.7 35 16.3 100610 80
2008-08-18 07:37:32 51°13.771 2°52.488 12.1 280 16.4 100610 80
2008-08-18 07:37:37 51°13.764 2°52.464 9.8 38 16.4 100610 80
2008-08-18 07:37:42 51°13.757 2°52.44 12.7 279 16.3 100600 80
2008-08-18 07:37:47 51°13.749 2°52.416 10.6 38 16.3 100600 80
2008-08-18 07:37:51 51°13.744 2°52.397 13.2 277 16.3 100610 79
2008-08-18 07:37:57 51°13.735 2°52.369 13.3 40 16.3 100610 79
2008-08-18 07:38:02 51°13.727 2°52.345 13.5 285 16.3 100610 79
2008-08-18 07:38:07 51°13.719 2°52.321 13.7 32 16.3 100610 79
2008-08-18 07:38:12 51°13.712 2°52.298 10.8 285 16.3 100620 80
2008-08-18 07:38:17 51°13.705 2°52.274 14.1 35 16.3 100620 80
2008-08-18 07:38:22 51°13.698 2°52.25 13.5 277 16.3 100610 80
2008-08-18 07:38:27 51°13.691 2°52.226 11.2 35 16.3 100610 80
2008-08-18 07:38:31 51°13.685 2°52.206 10.6 280 16.3 100610 80
2008-08-18 07:38:37 51°13.677 2°52.177 15.2 37 16.3 100610 80
2008-08-18 07:38:42 51°13.67 2°52.154 13.6 277 16.4 100620 81
2008-08-18 07:38:47 51°13.663 2°52.13 13.1 34 16.4 100620 81
2008-08-18 07:38:52 51°13.656 2°52.106 11.2 280 16.4 100610 81
2008-08-18 07:38:57 51°13.649 2°52.081 12.2 40 16.4 100610 81
2008-08-18 07:39:02 51°13.642 2°52.057 12.7 282 16.4 100620 81
2008-08-18 07:39:07 51°13.635 2°52.033 13.5 38 16.4 100620 81
2008-08-18 07:39:12 51°13.629 2°52.01 13.3 277 16.3 100610 81
2008-08-18 07:39:17 51°13.622 2°51.987 14.4 40 16.3 100610 81
2008-08-18 07:39:22 51°13.616 2°51.963 11.9 281 16.3 100610 81
2008-08-18 07:39:27 51°13.609 2°51.941 14.3 35 16.3 100610 81
2008-08-18 07:39:31 51°13.604 2°51.923 11.8 286 16.3 100610 81
2008-08-18 07:39:37 51°13.596 2°51.896 10.5 38 16.3 100610 81
2008-08-18 07:39:42 51°13.589 2°51.874 12.7 281 16.3 100610 81
2008-08-18 07:39:47 51°13.583 2°51.852 12.8 36 16.3 100610 81
2008-08-18 07:39:52 51°13.577 2°51.83 14.4 281 16.3 100610 81
2008-08-18 07:39:57 51°13.571 2°51.81 11.7 38 16.3 100610 81
2008-08-18 07:40:02 51°13.565 2°51.79 13.7 24 16.3 100610 80
2008-08-18 07:40:07 51°13.56 2°51.771 13.7 37 16.3 100610 80
2008-08-18 07:40:12 51°13.554 2°51.754 15.3 279 16.3 100610 81
2008-08-18 07:40:17 51°13.549 2°51.737 14 39 16.3 100610 81
2008-08-18 07:40:22 51°13.544 2°51.722 14.1 281 16.3 100610 81
2008-08-18 07:40:27 51°13.54 2°51.708 13.8 33 16.3 100610 81
2008-08-18 07:40:31 51°13.536 2°51.697 12.2 282 16.3 100610 81
2008-08-18 07:40:37 51°13.531 2°51.681 13.6 37 16.3 100610 81
2008-08-18 07:40:42 51°13.526 2°51.669 13.4 286 16.3 100610 81
2008-08-18 07:40:47 51°13.522 2°51.657 10.3 33 16.3 100610 81
2008-08-18 07:40:52 51°13.518 2°51.646 10.3 281 16.3 100610 80
2008-08-18 07:40:57 51°13.514 2°51.635 12.4 32 16.3 100610 80
2008-08-18 07:41:02 51°13.511 2°51.625 10.2 284 16.3 100610 80
2008-08-18 07:41:07 51°13.507 2°51.615 9.6 36 16.3 100610 80
2008-08-18 07:41:12 51°13.503 2°51.605 13.2 283 16.2 100610 80
2008-08-18 07:41:17 51°13.5 2°51.596 10.8 233 16.2 100610 80
2008-08-18 07:41:22 51°13.496 2°51.587 12.7 280 16.3 100620 81
2008-08-18 07:41:27 51°13.493 2°51.579 11.1 234 16.3 100620 81
2008-08-18 07:41:32 51°13.49 2°51.571 12.1 280 16.3 100620 81
2008-08-18 07:41:37 51°13.487 2°51.563 9.5 36 16.3 100620 81
2008-08-18 07:41:42 51°13.484 2°51.555 10.2 281 16.3 100610 81
2008-08-18 07:41:47 51°13.482 2°51.548 10.2 34 16.3 100610 81
2008-08-18 07:41:51 51°13.479 2°51.542 9.9 280 16.3 100610 80
2008-08-18 07:41:57 51°13.476 2°51.533 12.1 31 16.3 100610 80
2008-08-18 07:42:02 51°13.474 2°51.526 12.4 24 16.3 100620 81
2008-08-18 07:42:07 51°13.472 2°51.52 8.6 234 16.3 100620 81
2008-08-18 07:42:12 51°13.47 2°51.513 8.6 280 16.3 100620 81
2008-08-18 07:42:17 51°13.467 2°51.507 10 32 16.3 100620 81
2008-08-18 07:42:22 51°13.465 2°51.501 10.4 282 16.3 100620 81
2008-08-18 07:42:27 51°13.463 2°51.495 11 35 16.3 100620 81
2008-08-18 07:42:32 51°13.461 2°51.489 12 278 16.3 100620 81
2008-08-18 07:42:37 51°13.459 2°51.483 9.6 36 16.3 100620 81
2008-08-18 07:42:42 51°13.457 2°51.478 8.5 283 16.3 100620 81
2008-08-18 07:42:47 51°13.455 2°51.473 9 35 16.3 100620 81
2008-08-18 07:42:52 51°13.454 2°51.468 10.9 286 16.3 100620 82
2008-08-18 07:42:57 51°13.452 2°51.463 10.3 33 16.3 100620 82
2008-08-18 07:43:02 51°13.451 2°51.458 8 23 16.3 100620 81
2008-08-18 07:43:07 51°13.45 2°51.453 10.3 33 16.3 100620 81
2008-08-18 07:43:12 51°13.449 2°51.449 8.5 284 16.3 100620 81
2008-08-18 07:43:17 51°13.448 2°51.446 9.5 34 16.3 100620 81
2008-08-18 07:43:22 51°13.447 2°51.443 10.7 287 16.3 100620 81
2008-08-18 07:43:27 51°13.447 2°51.44 8.8 236 16.3 100620 81
2008-08-18 07:43:32 51°13.446 2°51.438 8.2 284 16.3 100630 81
2008-08-18 07:43:37 51°13.446 2°51.436 9.7 239 16.3 100630 81
2008-08-18 07:43:42 51°13.447 2°51.435 8.2 281 16.3 100630 81
2008-08-18 07:43:47 51°13.447 2°51.433 8.5 239 16.3 100630 81
2008-08-18 07:43:52 51°13.447 2°51.432 9.1 285 16.3 100630 81
2008-08-18 07:43:57 51°13.447 2°51.431 7 244 16.3 100630 81
2008-08-18 07:44:02 51°13.447 2°51.43 7.8 279 16.3 100630 82
2008-08-18 07:44:07 51°13.447 2°51.429 9.9 248 16.3 100630 82
2008-08-18 07:44:11 51°13.447 2°51.428 9 285 16.3 100630 82
2008-08-18 07:44:17 51°13.447 2°51.426 9.6 248 16.3 100630 82
2008-08-18 07:44:22 51°13.447 2°51.425 7.4 284 16.3 100630 82
2008-08-18 07:44:27 51°13.447 2°51.424 8.5 253 16.3 100630 82
2008-08-18 07:44:31 51°13.447 2°51.423 9.3 279 16.3 100630 82
2008-08-18 07:44:37 51°13.446 2°51.421 10 256 16.3 100630 82
2008-08-18 07:44:42 51°13.446 2°51.42 9.7 281 16.3 100620 82
2008-08-18 07:44:47 51°13.446 2°51.418 9 259 16.3 100620 82
2008-08-18 07:44:52 51°13.446 2°51.417 9.1 281 16.3 100630 82
2008-08-18 07:44:57 51°13.446 2°51.416 11.7 259 16.3 100630 82
2008-08-18 07:45:02 51°13.445 2°51.414 11.1 256 16.3 100630 82
2008-08-18 07:45:07 51°13.445 2°51.413 8.4 254 16.3 100630 82
2008-08-18 07:45:12 51°13.445 2°51.411 8.1 279 16.3 100630 82
2008-08-18 07:45:17 51°13.444 2°51.41 7.4 260 16.3 100630 82
2008-08-18 07:45:22 51°13.444 2°51.408 9.2 282 16.3 100630 82
2008-08-18 07:45:27 51°13.443 2°51.407 10.1 257 16.3 100630 82
2008-08-18 07:45:32 51°13.443 2°51.405 9.7 279 16.3 100630 82
2008-08-18 07:45:37 51°13.443 2°51.404 9.8 259 16.3 100630 82
2008-08-18 07:45:42 51°13.442 2°51.402 9.8 281 16.3 100630 82
2008-08-18 07:45:47 51°13.442 2°51.401 5.8 262 16.3 100630 82
2008-08-18 07:45:52 51°13.441 2°51.399 5.4 283 16.3 100640 82
2008-08-18 07:45:57 51°13.441 2°51.398 9.1 263 16.3 100640 82
2008-08-18 07:46:02 51°13.44 2°51.396 11.5 280 16.3 100640 82
2008-08-18 07:46:07 51°13.44 2°51.395 9.7 260 16.3 100640 82
2008-08-18 07:46:12 51°13.44 2°51.393 8.1 283 16.3 100630 82
2008-08-18 07:46:17 51°13.439 2°51.391 10.5 260 16.3 100630 82
2008-08-18 07:46:22 51°13.439 2°51.39 9.8 281 16.3 100630 82
2008-08-18 07:46:27 51°13.439 2°51.388 8.9 258 16.3 100630 82
2008-08-18 07:46:32 51°13.438 2°51.387 9.9 278 16.3 100640 82
2008-08-18 07:46:37 51°13.438 2°51.385 11 258 16.3 100640 82
2008-08-18 07:46:42 51°13.438 2°51.383 7.3 278 16.3 100640 82
2008-08-18 07:46:47 51°13.437 2°51.382 6.6 263 16.3 100640 82
2008-08-18 07:46:52 51°13.437 2°51.38 5.6 280 16.3 100640 82
2008-08-18 07:46:57 51°13.436 2°51.379 6.3 263 16.3 100640 82
2008-08-18 07:47:02 51°13.436 2°51.377 4.9 265 16.3 100640 82
2008-08-18 07:47:07 51°13.436 2°51.375 6.3 263 16.3 100640 82
2008-08-18 07:47:12 51°13.435 2°51.374 5.6 277 16.3 100640 82
2008-08-18 07:47:17 51°13.436 2°51.372 7.8 269 16.3 100640 82
2008-08-18 07:47:22 51°13.435 2°51.371 7.3 285 16.3 100640 82
2008-08-18 07:47:27 51°13.435 2°51.369 10.1 270 16.3 100640 82
2008-08-18 07:47:31 51°13.435 2°51.368 5.9 285 16.3 100640 83
2008-08-18 07:47:37 51°13.434 2°51.366 8.9 270 16.3 100640 83
2008-08-18 07:47:42 51°13.434 2°51.364 7 284 16.3 100640 83
2008-08-18 07:47:47 51°13.433 2°51.363 7.1 270 16.3 100640 83
2008-08-18 07:47:51 51°13.433 2°51.361 8.3 283 16.3 100640 83
2008-08-18 07:47:57 51°13.432 2°51.359 8.5 270 16.3 100640 83
2008-08-18 07:48:02 51°13.431 2°51.357 8.2 280 16.3 100640 83
2008-08-18 07:48:07 51°13.431 2°51.356 7.5 268 16.3 100640 83
2008-08-18 07:48:11 51°13.431 2°51.354 8.1 281 16.3 100640 82
2008-08-18 07:48:17 51°13.43 2°51.353 7 269 16.3 100640 82
2008-08-18 07:48:22 51°13.43 2°51.351 7.1 285 16.3 100640 82
2008-08-18 07:48:27 51°13.429 2°51.349 6.5 270 16.3 100640 82
2008-08-18 07:48:31 51°13.429 2°51.348 7.5 279 16.3 100640 82
2008-08-18 07:48:37 51°13.428 2°51.346 7.2 269 16.3 100640 82
2008-08-18 07:48:42 51°13.428 2°51.344 7.2 290 16.3 100640 82
2008-08-18 07:48:47 51°13.427 2°51.342 6.9 267 16.3 100640 82
2008-08-18 07:48:51 51°13.427 2°51.341 8.1 76 16.3 100640 83
2008-08-18 07:48:57 51°13.426 2°51.339 6.4 34 16.3 100640 83
2008-08-18 07:49:02 51°13.425 2°51.337 7.7 26 16.3 100640 83
2008-08-18 07:49:07 51°13.425 2°51.335 7.4 31 16.3 100640 83
2008-08-18 07:49:11 51°13.425 2°51.334 7.1 82 16.3 100640 83
2008-08-18 07:49:17 51°13.424 2°51.332 7.5 34 16.3 100640 83
2008-08-18 07:49:22 51°13.423 2°51.33 8.9 77 16.3 100640 82
2008-08-18 07:49:27 51°13.423 2°51.328 7.7 37 16.3 100640 82
2008-08-18 07:49:32 51°13.422 2°51.326 10.6 81 16.3 100640 82
2008-08-18 07:49:37 51°13.422 2°51.325 8.3 35 16.3 100640 82
2008-08-18 07:49:42 51°13.422 2°51.323 8.9 76 16.3 100640 83
2008-08-18 07:49:47 51°13.421 2°51.321 8 40 16.3 100640 83
2008-08-18 07:49:51 51°13.421 2°51.32 7.7 81 16.2 100640 82
2008-08-18 07:49:57 51°13.42 2°51.318 8.9 34 16.2 100640 82
2008-08-18 07:50:02 51°13.42 2°51.316 8.2 27 16.2 100630 82
2008-08-18 07:50:07 51°13.419 2°51.314 8.3 40 16.2 100630 82
2008-08-18 07:50:12 51°13.419 2°51.312 9.4 80 16.2 100640 81
2008-08-18 07:50:17 51°13.418 2°51.311 8.9 35 16.2 100640 81
2008-08-18 07:50:22 51°13.418 2°51.309 9.7 81 16.2 100640 82
2008-08-18 07:50:27 51°13.417 2°51.307 8.1 38 16.2 100640 82
2008-08-18 07:50:31 51°13.417 2°51.306 7.3 77 16.2 100630 82
2008-08-18 07:50:37 51°13.417 2°51.303 10.4 31 16.2 100630 82
2008-08-18 07:50:42 51°13.416 2°51.302 9.7 284 16.1 100630 82
2008-08-18 07:50:47 51°13.416 2°51.3 7.7 266 16.1 100630 82
2008-08-18 07:50:51 51°13.416 2°51.298 7.7 282 16.2 100630 82
2008-08-18 07:50:57 51°13.415 2°51.296 8.3 270 16.2 100630 82
2008-08-18 07:51:02 51°13.415 2°51.294 7.4 270 16.2 100630 82
2008-08-18 07:51:07 51°13.414 2°51.293 7.8 27 16.2 100630 82
2008-08-18 07:51:12 51°13.414 2°51.291 9.2 75 16.2 100640 82
2008-08-18 07:51:17 51°13.414 2°51.289 8.5 270 16.2 100640 82
2008-08-18 07:51:22 51°13.413 2°51.287 9.1 280 16.2 100630 83
2008-08-18 07:51:27 51°13.413 2°51.285 8.1 269 16.2 100630 83
2008-08-18 07:51:31 51°13.413 2°51.284 7 81 16.3 100640 84
2008-08-18 07:51:37 51°13.413 2°51.281 7.3 14 16.3 100640 84
2008-08-18 07:51:42 51°13.413 2°51.279 9.4 282 16.3 100640 84
2008-08-18 07:51:47 51°13.413 2°51.276 9 266 16.3 100640 84
2008-08-18 07:51:51 51°13.413 2°51.274 8 280 16.3 100640 84
2008-08-18 07:51:57 51°13.413 2°51.271 10 270 16.3 100640 84
2008-08-18 07:52:02 51°13.413 2°51.268 8.6 269 16.2 100640 83
2008-08-18 07:52:07 51°13.413 2°51.264 5.6 262 16.2 100640 83
2008-08-18 07:52:11 51°13.414 2°51.26 9.9 286 16.2 100640 83
2008-08-18 07:52:17 51°13.414 2°51.252 9.3 257 16.2 100640 83
2008-08-18 07:52:22 51°13.414 2°51.245 9.1 283 16.2 100640 83
2008-08-18 07:52:27 51°13.414 2°51.236 10 251 16.2 100640 83
2008-08-18 07:52:31 51°13.414 2°51.229 9.3 285 16.2 100640 83
2008-08-18 07:52:37 51°13.412 2°51.217 10 239 16.2 100640 83
2008-08-18 07:52:42 51°13.41 2°51.207 10.5 283 16.2 100640 83
2008-08-18 07:52:47 51°13.407 2°51.197 9.5 233 16.2 100640 83
2008-08-18 07:52:52 51°13.404 2°51.187 10 283 16.2 100640 83
2008-08-18 07:52:57 51°13.399 2°51.177 9.4 32 16.2 100640 83
2008-08-18 07:53:02 51°13.395 2°51.166 12.4 284 16.2 100640 83
2008-08-18 07:53:07 51°13.39 2°51.155 10.5 37 16.2 100640 84
2008-08-18 07:53:12 51°13.385 2°51.144 10.5 283 16.2 100640 84
2008-08-18 07:53:17 51°13.379 2°51.131 11.3 33 16.2 100630 84
2008-08-18 07:53:22 51°13.374 2°51.119 10.5 278 16.2 100630 84
2008-08-18 07:53:27 51°13.368 2°51.106 12.6 35 16.2 100620 84
2008-08-18 07:53:32 51°13.362 2°51.092 10.1 283 16.2 100620 84
2008-08-18 07:53:37 51°13.357 2°51.079 10.3 36 16.2 100620 83
2008-08-18 07:53:42 51°13.351 2°51.064 12.3 283 16.2 100620 83
2008-08-18 07:53:47 51°13.345 2°51.05 12.5 32 16.2 100630 83
2008-08-18 07:53:52 51°13.339 2°51.034 11.4 281 16.2 100630 83
2008-08-18 07:53:57 51°13.332 2°51.018 13.5 34 16.1 100630 84
2008-08-18 07:54:02 51°13.325 2°51 13.5 280 16.1 100630 84
2008-08-18 07:54:07 51°13.317 2°50.982 13.8 318 16.1 100620 84
2008-08-18 07:54:12 51°13.309 2°50.962 13.6 280 16.1 100620 84
2008-08-18 07:54:17 51°13.3 2°50.943 13.8 316 16.1 100620 84
2008-08-18 07:54:22 51°13.291 2°50.923 12.5 284 16.1 100620 84
2008-08-18 07:54:27 51°13.283 2°50.902 14.3 318 16.1 100620 84
2008-08-18 07:54:32 51°13.274 2°50.88 15.4 278 16.1 100620 84
2008-08-18 07:54:37 51°13.265 2°50.859 11.8 317 16.1 100630 85
2008-08-18 07:54:42 51°13.256 2°50.837 14.3 283 16.1 100630 85
2008-08-18 07:54:47 51°13.247 2°50.815 11.7 315 16.1 100630 85
2008-08-18 07:54:52 51°13.237 2°50.792 14.3 277 16.1 100630 85
2008-08-18 07:54:57 51°13.228 2°50.769 14.1 317 16.1 100610 85
2008-08-18 07:55:02 51°13.218 2°50.746 15.2 279 16.1 100610 85
2008-08-18 07:55:07 51°13.209 2°50.722 15.2 316 16 100620 85
2008-08-18 07:55:12 51°13.199 2°50.698 17.6 278 16 100620 85
2008-08-18 07:55:17 51°13.189 2°50.674 15.8 36 16 100620 85
2008-08-18 07:55:22 51°13.179 2°50.65 16.6 282 16 100620 85
2008-08-18 07:55:27 51°13.17 2°50.626 16.3 317 16 100630 86
2008-08-18 07:55:32 51°13.159 2°50.601 13.1 278 16 100630 86
2008-08-18 07:55:37 51°13.149 2°50.577 15.8 36 16 100610 86
2008-08-18 07:55:42 51°13.14 2°50.552 15.7 282 16 100610 86
2008-08-18 07:55:47 51°13.13 2°50.527 15.7 315 16 100610 86
2008-08-18 07:55:52 51°13.12 2°50.504 12.9 282 16 100610 86
2008-08-18 07:55:57 51°13.11 2°50.479 11.3 316 16 100610 86
2008-08-18 07:56:02 51°13.1 2°50.455 11.9 281 16 100610 86
2008-08-18 07:56:07 51°13.09 2°50.43 12.7 37 16 100610 85
2008-08-18 07:56:12 51°13.079 2°50.406 13 281 16 100610 85
2008-08-18 07:56:17 51°13.069 2°50.382 14.9 33 15.9 100610 86
2008-08-18 07:56:22 51°13.059 2°50.357 16.2 283 15.9 100610 86
2008-08-18 07:56:27 51°13.049 2°50.333 17.2 36 15.9 100610 86
2008-08-18 07:56:32 51°13.039 2°50.308 15.6 282 15.9 100610 86
2008-08-18 07:56:37 51°13.029 2°50.283 15.1 34 15.9 100620 86
2008-08-18 07:56:42 51°13.019 2°50.259 12.7 283 15.9 100620 86
2008-08-18 07:56:47 51°13.009 2°50.234 14.9 317 15.8 100610 86
2008-08-18 07:56:52 51°12.999 2°50.21 15.6 285 15.8 100610 86
2008-08-18 07:56:57 51°12.988 2°50.185 14.5 26 15.8 100610 86
2008-08-18 07:57:02 51°12.978 2°50.16 14.9 283 15.8 100610 86
2008-08-18 07:57:07 51°12.968 2°50.136 13.3 32 15.8 100610 87
2008-08-18 07:57:12 51°12.958 2°50.111 17.3 285 15.8 100610 87
2008-08-18 07:57:17 51°12.948 2°50.086 15.9 315 15.8 100610 87
2008-08-18 07:57:22 51°12.938 2°50.061 16.7 283 15.8 100610 87
2008-08-18 07:57:27 51°12.928 2°50.037 16.3 315 15.8 100620 87
2008-08-18 07:57:32 51°12.918 2°50.012 13.3 283 15.8 100620 87
2008-08-18 07:57:37 51°12.908 2°49.988 13.8 33 15.8 100610 87
2008-08-18 07:57:42 51°12.898 2°49.963 12.3 278 15.8 100610 87
2008-08-18 07:57:47 51°12.887 2°49.939 16.5 319 15.8 100610 87
2008-08-18 07:57:52 51°12.877 2°49.914 13.3 284 15.8 100610 87
2008-08-18 07:57:57 51°12.867 2°49.89 13.6 316 15.8 100610 87
2008-08-18 07:58:02 51°12.857 2°49.865 14.7 284 15.8 100610 87
2008-08-18 07:58:07 51°12.847 2°49.841 13 318 15.8 100610 88
2008-08-18 07:58:12 51°12.837 2°49.816 12.9 281 15.8 100610 88
2008-08-18 07:58:17 51°12.827 2°49.792 13.3 318 15.8 100620 87
2008-08-18 07:58:22 51°12.817 2°49.768 13.4 280 15.8 100620 87
2008-08-18 07:58:27 51°12.807 2°49.743 15.3 38 15.8 100610 87
2008-08-18 07:58:32 51°12.797 2°49.719 14.6 283 15.8 100610 87
2008-08-18 07:58:37 51°12.787 2°49.694 13.8 320 15.8 100620 87
2008-08-18 07:58:42 51°12.778 2°49.669 13.5 282 15.8 100620 87
2008-08-18 07:58:46 51°12.77 2°49.649 14.9 316 15.8 100620 88
2008-08-18 07:58:52 51°12.758 2°49.62 13.3 277 15.8 100620 88
2008-08-18 07:58:57 51°12.748 2°49.595 13.3 322 15.8 100620 88
2008-08-18 07:59:02 51°12.738 2°49.57 12 277 15.8 100620 88
2008-08-18 07:59:07 51°12.729 2°49.545 12.5 316 15.8 100620 88
2008-08-18 07:59:12 51°12.719 2°49.521 13.4 284 15.8 100620 88
2008-08-18 07:59:17 51°12.709 2°49.496 11.4 316 15.7 100620 88
2008-08-18 07:59:22 51°12.7 2°49.471 14.7 284 15.7 100620 88
2008-08-18 07:59:27 51°12.691 2°49.446 15.1 317 15.7 100630 88
2008-08-18 07:59:32 51°12.682 2°49.42 16.7 284 15.7 100630 88
2008-08-18 07:59:37 51°12.672 2°49.395 14.6 37 15.7 100620 88
2008-08-18 07:59:42 51°12.664 2°49.369 13.6 282 15.7 100620 88
2008-08-18 07:59:47 51°12.655 2°49.344 14.6 23 15.7 100610 89
2008-08-18 07:59:52 51°12.646 2°49.318 14.6 280 15.7 100610 89
2008-08-18 07:59:57 51°12.638 2°49.292 15.2 37 15.7 100620 88
2008-08-18 08:00:02 51°12.629 2°49.266 14.6 284 15.7 100620 88
2008-08-18 08:00:07 51°12.62 2°49.24 13.9 316 15.7 100610 88
2008-08-18 08:00:12 51°12.612 2°49.215 11.9 282 15.7 100610 88
2008-08-18 08:00:17 51°12.603 2°49.189 14.3 316 15.7 100610 88
2008-08-18 08:00:22 51°12.594 2°49.163 12.1 284 15.7 100610 88
2008-08-18 08:00:27 51°12.586 2°49.137 12.6 316 15.7 100610 88
2008-08-18 08:00:32 51°12.577 2°49.111 14.5 279 15.7 100610 88
2008-08-18 08:00:37 51°12.568 2°49.086 14.7 34 15.7 100620 88
2008-08-18 08:00:42 51°12.56 2°49.06 14.5 285 15.7 100620 88
2008-08-18 08:00:47 51°12.551 2°49.034 15 34 15.6 100610 89
2008-08-18 08:00:52 51°12.543 2°49.008 12.1 278 15.6 100610 89
2008-08-18 08:00:57 51°12.534 2°48.982 13.2 316 15.7 100620 89
2008-08-18 08:01:02 51°12.525 2°48.956 15.1 279 15.7 100620 89
2008-08-18 08:01:07 51°12.517 2°48.931 12.5 315 15.6 100610 89
2008-08-18 08:01:12 51°12.508 2°48.905 15.1 284 15.6 100610 89
2008-08-18 08:01:17 51°12.5 2°48.879 13.7 25 15.6 100610 89
2008-08-18 08:01:22 51°12.491 2°48.853 14.9 284 15.6 100610 89
2008-08-18 08:01:27 51°12.482 2°48.827 14.5 35 15.6 100610 89
2008-08-18 08:01:32 51°12.474 2°48.801 12.3 280 15.6 100610 89
2008-08-18 08:01:37 51°12.465 2°48.775 12.6 317 15.6 100610 89
2008-08-18 08:01:42 51°12.457 2°48.749 14.6 286 15.6 100610 89
2008-08-18 08:01:47 51°12.449 2°48.723 11.9 37 15.6 100610 89
2008-08-18 08:01:52 51°12.44 2°48.697 11.9 281 15.6 100610 89
2008-08-18 08:01:57 51°12.432 2°48.671 14.5 32 15.6 100610 89
2008-08-18 08:02:02 51°12.423 2°48.646 12.1 282 15.6 100610 89
2008-08-18 08:02:07 51°12.414 2°48.62 12.3 36 15.6 100610 89
2008-08-18 08:02:12 51°12.406 2°48.594 12.9 279 15.6 100610 89
2008-08-18 08:02:17 51°12.398 2°48.567 13.1 37 15.6 100610 89
2008-08-18 08:02:22 51°12.39 2°48.541 10.5 281 15.6 100610 89
2008-08-18 08:02:27 51°12.383 2°48.514 13.5 35 15.6 100610 89
2008-08-18 08:02:32 51°12.376 2°48.487 12.7 277 15.6 100610 89
2008-08-18 08:02:37 51°12.368 2°48.46 13 38 15.6 100620 90
2008-08-18 08:02:42 51°12.361 2°48.433 15 279 15.6 100620 90
2008-08-18 08:02:47 51°12.354 2°48.406 11.9 26 15.6 100610 90
2008-08-18 08:02:52 51°12.347 2°48.378 11.8 281 15.6 100610 90
2008-08-18 08:02:57 51°12.341 2°48.351 14.8 25 15.6 100620 89
2008-08-18 08:03:02 51°12.334 2°48.324 12.3 277 15.6 100620 89
2008-08-18 08:03:07 51°12.326 2°48.297 14.1 37 15.6 100610 89
2008-08-18 08:03:12 51°12.319 2°48.27 12.5 278 15.6 100610 89
2008-08-18 08:03:17 51°12.312 2°48.243 12.7 23 15.6 100610 90
2008-08-18 08:03:22 51°12.305 2°48.216 15.4 282 15.6 100610 90
2008-08-18 08:03:27 51°12.298 2°48.189 15.1 34 15.6 100610 89
2008-08-18 08:03:32 51°12.291 2°48.162 13.9 278 15.6 100610 89
2008-08-18 08:03:37 51°12.283 2°48.135 11.5 28 15.6 100610 90
2008-08-18 08:03:42 51°12.276 2°48.107 16.3 278 15.6 100610 90
2008-08-18 08:03:47 51°12.269 2°48.08 14.6 37 15.6 100600 90
2008-08-18 08:03:52 51°12.262 2°48.053 16.3 280 15.6 100600 90
2008-08-18 08:03:57 51°12.255 2°48.026 16.4 37 15.6 100610 90
2008-08-18 08:04:02 51°12.247 2°47.999 11.4 281 15.6 100610 90
2008-08-18 08:04:07 51°12.24 2°47.973 14.7 33 15.6 100610 90
2008-08-18 08:04:12 51°12.232 2°47.946 13.4 284 15.6 100610 90
2008-08-18 08:04:17 51°12.225 2°47.919 13.9 32 15.6 100600 90
2008-08-18 08:04:22 51°12.218 2°47.892 16.5 282 15.6 100600 90
2008-08-18 08:04:27 51°12.21 2°47.865 14.5 32 15.6 100610 90
2008-08-18 08:04:32 51°12.203 2°47.838 12.5 276 15.6 100610 90
2008-08-18 08:04:37 51°12.195 2°47.811 13.9 231 15.6 100600 90
2008-08-18 08:04:42 51°12.188 2°47.785 12.4 280 15.6 100600 90
2008-08-18 08:04:47 51°12.181 2°47.758 12.7 27 15.6 100600 90
2008-08-18 08:04:52 51°12.174 2°47.731 13.5 280 15.6 100600 90
2008-08-18 08:04:57 51°12.166 2°47.704 13.1 23 15.6 100600 91
2008-08-18 08:05:02 51°12.159 2°47.677 13 281 15.6 100600 91
2008-08-18 08:05:07 51°12.151 2°47.65 12.8 35 15.6 100600 91
2008-08-18 08:05:12 51°12.144 2°47.624 11.9 286 15.6 100600 91
2008-08-18 08:05:17 51°12.136 2°47.597 15.1 34 15.6 100600 91
2008-08-18 08:05:22 51°12.129 2°47.57 14.9 285 15.6 100600 91
2008-08-18 08:05:27 51°12.121 2°47.543 12.3 36 15.6 100600 91
2008-08-18 08:05:32 51°12.114 2°47.516 15.2 278 15.6 100600 91
2008-08-18 08:05:37 51°12.106 2°47.489 15.2 25 15.5 100610 90
2008-08-18 08:05:42 51°12.099 2°47.462 13.9 277 15.5 100610 90
2008-08-18 08:05:47 51°12.092 2°47.435 11.6 34 15.5 100610 90
2008-08-18 08:05:52 51°12.084 2°47.409 11.4 282 15.5 100610 90
2008-08-18 08:05:57 51°12.077 2°47.382 14.5 25 15.5 100600 91
2008-08-18 08:06:02 51°12.069 2°47.355 14.6 282 15.5 100600 91
2008-08-18 08:06:07 51°12.062 2°47.328 11.6 36 15.5 100600 90
2008-08-18 08:06:12 51°12.054 2°47.301 11.5 277 15.5 100600 90
2008-08-18 08:06:17 51°12.047 2°47.274 12.2 27 15.5 100610 91
2008-08-18 08:06:22 51°12.039 2°47.248 11.6 280 15.5 100610 91
2008-08-18 08:06:27 51°12.032 2°47.221 14.6 25 15.5 100610 91
2008-08-18 08:06:32 51°12.024 2°47.194 11.6 277 15.5 100610 91
2008-08-18 08:06:37 51°12.017 2°47.167 11.9 39 15.5 100610 91
2008-08-18 08:06:42 51°12.009 2°47.14 16 283 15.5 100610 91
2008-08-18 08:06:47 51°12.002 2°47.114 14.6 37 15.5 100610 91
2008-08-18 08:06:52 51°11.994 2°47.088 14.2 278 15.5 100610 91
2008-08-18 08:06:57 51°11.986 2°47.061 15.1 28 15.5 100610 91
2008-08-18 08:07:02 51°11.978 2°47.035 14.2 282 15.5 100610 91
2008-08-18 08:07:07 51°11.969 2°47.009 14.8 35 15.5 100610 91
2008-08-18 08:07:12 51°11.961 2°46.983 15.4 280 15.5 100610 91
2008-08-18 08:07:17 51°11.954 2°46.956 17.8 37 15.5 100610 91
2008-08-18 08:07:22 51°11.946 2°46.93 12.8 285 15.5 100610 91
2008-08-18 08:07:27 51°11.94 2°46.902 13.5 34 15.5 100610 91
2008-08-18 08:07:32 51°11.933 2°46.875 13.4 280 15.5 100610 91
2008-08-18 08:07:37 51°11.927 2°46.848 12.6 27 15.5 100610 91
2008-08-18 08:07:42 51°11.922 2°46.82 14.3 281 15.5 100610 91
2008-08-18 08:07:47 51°11.917 2°46.792 11.4 35 15.5 100600 91
2008-08-18 08:07:52 51°11.912 2°46.764 15.6 280 15.5 100600 91
2008-08-18 08:07:57 51°11.907 2°46.736 12.2 35 15.4 100600 91
2008-08-18 08:08:02 51°11.903 2°46.707 15.1 285 15.4 100600 91
2008-08-18 08:08:07 51°11.899 2°46.679 11.5 35 15.5 100610 92
2008-08-18 08:08:12 51°11.895 2°46.65 13.8 277 15.5 100610 92
2008-08-18 08:08:17 51°11.891 2°46.621 14.3 25 15.4 100600 91
2008-08-18 08:08:22 51°11.887 2°46.593 14.7 284 15.4 100600 91
2008-08-18 08:08:27 51°11.883 2°46.564 14.8 36 15.4 100610 91
2008-08-18 08:08:32 51°11.88 2°46.535 15.4 279 15.4 100610 91
2008-08-18 08:08:37 51°11.876 2°46.506 13.3 25 15.4 100610 91
2008-08-18 08:08:42 51°11.872 2°46.478 15.4 280 15.4 100610 91
2008-08-18 08:08:47 51°11.868 2°46.449 12.3 35 15.4 100610 92
2008-08-18 08:08:52 51°11.864 2°46.42 14.8 282 15.4 100610 92
2008-08-18 08:08:57 51°11.86 2°46.392 12.2 235 15.4 100610 92
2008-08-18 08:09:02 51°11.856 2°46.363 15.4 284 15.4 100610 92
2008-08-18 08:09:07 51°11.852 2°46.335 12.7 34 15.4 100610 92
2008-08-18 08:09:12 51°11.847 2°46.306 12.7 278 15.4 100610 92
2008-08-18 08:09:17 51°11.843 2°46.277 11.2 34 15.5 100610 92
2008-08-18 08:09:22 51°11.839 2°46.249 12.2 278 15.5 100610 92
2008-08-18 08:09:27 51°11.835 2°46.22 15.2 22 15.4 100610 92
2008-08-18 08:09:32 51°11.831 2°46.191 12.4 283 15.4 100610 92
2008-08-18 08:09:37 51°11.827 2°46.163 14 24 15.4 100610 92
2008-08-18 08:09:42 51°11.823 2°46.134 14.8 280 15.4 100610 92
2008-08-18 08:09:47 51°11.819 2°46.106 14.7 26 15.4 100610 92
2008-08-18 08:09:52 51°11.814 2°46.077 12.8 285 15.4 100610 92
2008-08-18 08:09:57 51°11.81 2°46.048 13.7 32 15.4 100610 92
2008-08-18 08:10:02 51°11.806 2°46.02 12.8 280 15.4 100610 92
2008-08-18 08:10:07 51°11.802 2°45.991 12.6 238 15.4 100610 92
2008-08-18 08:10:12 51°11.797 2°45.962 14 285 15.4 100610 92
2008-08-18 08:10:17 51°11.794 2°45.933 13.6 21 15.4 100610 92
2008-08-18 08:10:22 51°11.79 2°45.904 13.9 282 15.4 100610 92
2008-08-18 08:10:27 51°11.786 2°45.876 13.5 36 15.4 100610 92
2008-08-18 08:10:32 51°11.781 2°45.847 12.4 277 15.4 100610 92
2008-08-18 08:10:37 51°11.777 2°45.818 11.8 28 15.4 100610 93
2008-08-18 08:10:42 51°11.773 2°45.79 12.6 286 15.4 100610 93
2008-08-18 08:10:47 51°11.769 2°45.761 14.3 31 15.5 100620 93
2008-08-18 08:10:52 51°11.764 2°45.732 15.4 285 15.5 100620 93
2008-08-18 08:10:57 51°11.76 2°45.704 14.4 33 15.4 100610 93
2008-08-18 08:11:02 51°11.756 2°45.675 11.4 286 15.4 100610 93
2008-08-18 08:11:07 51°11.753 2°45.646 13.2 24 15.4 100610 93
2008-08-18 08:11:12 51°11.749 2°45.617 12.8 283 15.4 100610 93
2008-08-18 08:11:17 51°11.746 2°45.588 10.8 35 15.5 100610 93
2008-08-18 08:11:22 51°11.744 2°45.559 10.9 278 15.5 100610 93
2008-08-18 08:11:27 51°11.741 2°45.53 14.1 24 15.5 100620 93
2008-08-18 08:11:32 51°11.739 2°45.501 13.8 281 15.5 100620 93
2008-08-18 08:11:37 51°11.737 2°45.471 12.6 23 15.4 100620 93
2008-08-18 08:11:42 51°11.734 2°45.442 13.8 282 15.4 100620 93
2008-08-18 08:11:47 51°11.732 2°45.413 10.5 236 15.4 100620 93
2008-08-18 08:11:52 51°11.73 2°45.384 12.9 286 15.4 100620 93
2008-08-18 08:11:57 51°11.728 2°45.355 11 233 15.5 100610 93
2008-08-18 08:12:02 51°11.726 2°45.326 11.6 277 15.5 100610 93
2008-08-18 08:12:07 51°11.724 2°45.297 14.4 235 15.4 100620 93
2008-08-18 08:12:12 51°11.722 2°45.268 11.8 284 15.4 100620 93
2008-08-18 08:12:17 51°11.719 2°45.239 11 25 15.4 100620 93
2008-08-18 08:12:22 51°11.717 2°45.21 13.7 285 15.4 100620 93
2008-08-18 08:12:27 51°11.715 2°45.182 14.1 33 15.4 100610 93
2008-08-18 08:12:32 51°11.713 2°45.153 14.1 284 15.4 100610 93
2008-08-18 08:12:37 51°11.711 2°45.124 12.4 27 15.4 100610 93
2008-08-18 08:12:42 51°11.709 2°45.095 10.2 279 15.4 100610 93
2008-08-18 08:12:47 51°11.707 2°45.066 11.6 32 15.4 100610 93
2008-08-18 08:12:52 51°11.704 2°45.038 10.5 277 15.4 100610 93
2008-08-18 08:12:57 51°11.703 2°45.009 11.2 26 15.4 100620 93
2008-08-18 08:13:02 51°11.7 2°44.98 11.6 281 15.4 100620 93
2008-08-18 08:13:07 51°11.699 2°44.951 15.2 23 15.4 100620 93
2008-08-18 08:13:12 51°11.697 2°44.923 14.3 283 15.4 100620 93
2008-08-18 08:13:17 51°11.695 2°44.894 11.5 235 15.4 100620 94
2008-08-18 08:13:22 51°11.692 2°44.865 12.5 279 15.4 100620 94
2008-08-18 08:13:27 51°11.691 2°44.837 14.3 238 15.4 100620 94
2008-08-18 08:13:32 51°11.689 2°44.808 13.6 286 15.4 100620 94
2008-08-18 08:13:37 51°11.687 2°44.78 12.5 19 15.4 100610 94
2008-08-18 08:13:42 51°11.685 2°44.751 13 278 15.4 100610 94
2008-08-18 08:13:47 51°11.683 2°44.722 10.7 236 15.4 100620 94
2008-08-18 08:13:52 51°11.682 2°44.694 13.1 277 15.4 100620 94
2008-08-18 08:13:57 51°11.68 2°44.665 13.3 237 15.4 100610 94
2008-08-18 08:14:02 51°11.678 2°44.637 11.4 278 15.4 100610 94
2008-08-18 08:14:07 51°11.676 2°44.608 11.4 24 15.4 100620 94
2008-08-18 08:14:12 51°11.674 2°44.58 10.9 279 15.4 100620 94
2008-08-18 08:14:17 51°11.673 2°44.552 13.7 22 15.4 100620 94
2008-08-18 08:14:22 51°11.671 2°44.523 12.8 282 15.4 100620 94
2008-08-18 08:14:27 51°11.669 2°44.495 10.5 35 15.4 100610 94
2008-08-18 08:14:32 51°11.667 2°44.466 11.3 279 15.4 100610 94
2008-08-18 08:14:37 51°11.665 2°44.438 14.4 25 15.4 100620 94
2008-08-18 08:14:42 51°11.664 2°44.41 13.6 286 15.4 100620 94
2008-08-18 08:14:47 51°11.662 2°44.382 11.8 238 15.4 100620 94
2008-08-18 08:14:52 51°11.66 2°44.353 10.5 280 15.4 100620 94
2008-08-18 08:14:57 51°11.658 2°44.325 11.6 22 15.4 100610 94
2008-08-18 08:15:02 51°11.656 2°44.297 13.2 277 15.4 100610 94
2008-08-18 08:15:07 51°11.655 2°44.269 11.7 235 15.4 100610 94
2008-08-18 08:15:12 51°11.653 2°44.241 11.4 284 15.4 100610 94
2008-08-18 08:15:17 51°11.651 2°44.212 12.5 26 15.4 100620 94
2008-08-18 08:15:22 51°11.649 2°44.184 11.4 278 15.4 100620 94
2008-08-18 08:15:27 51°11.648 2°44.156 15 238 15.4 100610 94
2008-08-18 08:15:32 51°11.646 2°44.128 12.3 286 15.4 100610 94
2008-08-18 08:15:37 51°11.644 2°44.1 12.3 32 15.4 100610 94
2008-08-18 08:15:42 51°11.643 2°44.072 10.5 284 15.4 100610 94
2008-08-18 08:15:47 51°11.64 2°44.044 11.7 236 15.3 100610 94
2008-08-18 08:15:52 51°11.638 2°44.016 14.3 281 15.3 100610 94
2008-08-18 08:15:57 51°11.636 2°43.988 11.1 237 15.3 100610 94
2008-08-18 08:16:02 51°11.633 2°43.96 13.3 280 15.3 100610 94
2008-08-18 08:16:07 51°11.63 2°43.932 13.5 28 15.4 100620 94
2008-08-18 08:16:12 51°11.627 2°43.904 10.8 281 15.4 100620 94
2008-08-18 08:16:17 51°11.625 2°43.877 11.1 23 15.4 100610 94
2008-08-18 08:16:22 51°11.622 2°43.849 13.7 281 15.4 100610 94
2008-08-18 08:16:27 51°11.619 2°43.821 10.9 27 15.4 100610 95
2008-08-18 08:16:32 51°11.616 2°43.793 13.5 278 15.4 100610 95
2008-08-18 08:16:37 51°11.614 2°43.765 11.6 238 15.4 100620 95
2008-08-18 08:16:42 51°11.611 2°43.737 11.1 281 15.4 100620 95
2008-08-18 08:16:47 51°11.608 2°43.71 13.5 236 15.4 100610 95
2008-08-18 08:16:52 51°11.606 2°43.682 14.2 281 15.4 100610 95
2008-08-18 08:16:57 51°11.603 2°43.654 11.9 22 15.4 100610 95
2008-08-18 08:17:02 51°11.6 2°43.626 11.9 279 15.4 100610 95
2008-08-18 08:17:07 51°11.596 2°43.599 13.4 34 15.4 100610 95
2008-08-18 08:17:12 51°11.592 2°43.571 13.2 286 15.4 100610 95
2008-08-18 08:17:17 51°11.589 2°43.544 11.9 24 15.4 100610 95
2008-08-18 08:17:22 51°11.585 2°43.516 13.7 281 15.4 100610 95
2008-08-18 08:17:27 51°11.581 2°43.488 11.3 33 15.3 100600 95
2008-08-18 08:17:32 51°11.578 2°43.46 14.5 281 15.3 100600 95
2008-08-18 08:17:37 51°11.574 2°43.433 12.3 28 15.3 100610 95
2008-08-18 08:17:42 51°11.571 2°43.405 11.2 280 15.3 100610 95
2008-08-18 08:17:47 51°11.568 2°43.377 13.4 29 15.3 100610 95
2008-08-18 08:17:52 51°11.565 2°43.349 13.4 282 15.3 100610 95
2008-08-18 08:17:57 51°11.562 2°43.321 11 235 15.3 100610 95
2008-08-18 08:18:02 51°11.558 2°43.294 10.7 280 15.3 100610 95
2008-08-18 08:18:07 51°11.554 2°43.266 13.5 32 15.3 100600 95
2008-08-18 08:18:12 51°11.55 2°43.239 10.8 282 15.3 100600 95
2008-08-18 08:18:17 51°11.546 2°43.211 12.7 24 15.3 100610 95
2008-08-18 08:18:22 51°11.542 2°43.183 11.1 281 15.3 100610 95
2008-08-18 08:18:27 51°11.538 2°43.156 11.4 233 15.3 100610 95
2008-08-18 08:18:32 51°11.533 2°43.128 10.7 277 15.3 100610 95
2008-08-18 08:18:37 51°11.529 2°43.101 13.4 236 15.3 100610 95
2008-08-18 08:18:42 51°11.525 2°43.073 13.2 285 15.3 100610 95
2008-08-18 08:18:47 51°11.521 2°43.046 11.3 34 15.3 100610 95
2008-08-18 08:18:52 51°11.516 2°43.018 10.3 283 15.3 100610 95
2008-08-18 08:18:57 51°11.512 2°42.99 12 24 15.3 100610 95
2008-08-18 08:19:02 51°11.508 2°42.963 12.4 281 15.3 100610 95
2008-08-18 08:19:07 51°11.503 2°42.935 10.3 36 15.4 100610 95
2008-08-18 08:19:12 51°11.499 2°42.908 11.3 279 15.4 100610 95
2008-08-18 08:19:17 51°11.495 2°42.88 13.9 23 15.3 100610 95
2008-08-18 08:19:22 51°11.491 2°42.853 11.6 282 15.3 100610 95
2008-08-18 08:19:27 51°11.486 2°42.825 13.8 36 15.3 100610 95
2008-08-18 08:19:32 51°11.482 2°42.798 11.1 285 15.3 100610 95
2008-08-18 08:19:37 51°11.478 2°42.77 10.9 26 15.3 100610 95
2008-08-18 08:19:42 51°11.474 2°42.743 14.1 281 15.3 100610 95
2008-08-18 08:19:47 51°11.469 2°42.715 14.2 33 15.3 100610 95
2008-08-18 08:19:52 51°11.465 2°42.688 13 281 15.3 100610 95
2008-08-18 08:19:57 51°11.46 2°42.661 14.2 23 15.3 100610 95
2008-08-18 08:20:02 51°11.454 2°42.634 14.2 284 15.3 100610 95
2008-08-18 08:20:07 51°11.448 2°42.609 13.8 22 15.3 100610 95
2008-08-18 08:20:12 51°11.443 2°42.584 13.9 279 15.3 100610 95
2008-08-18 08:20:17 51°11.436 2°42.56 13.1 26 15.4 100610 95
2008-08-18 08:20:22 51°11.429 2°42.538 12.8 284 15.4 100610 95
2008-08-18 08:20:27 51°11.42 2°42.519 14.6 315 15.3 100600 95
2008-08-18 08:20:32 51°11.411 2°42.502 11.5 278 15.3 100600 95
2008-08-18 08:20:37 51°11.401 2°42.486 12.2 317 15.4 100610 96
2008-08-18 08:20:42 51°11.391 2°42.472 13.8 286 15.4 100610 96
2008-08-18 08:20:47 51°11.381 2°42.458 11.2 318 15.4 100610 96
2008-08-18 08:20:52 51°11.371 2°42.446 10.7 282 15.4 100610 96
2008-08-18 08:20:57 51°11.362 2°42.433 10.3 318 15.4 100610 95
2008-08-18 08:21:02 51°11.353 2°42.421 12.2 282 15.4 100610 95
2008-08-18 08:21:07 51°11.344 2°42.41 11 321 15.4 100610 95
2008-08-18 08:21:12 51°11.336 2°42.398 13.7 286 15.4 100610 95
2008-08-18 08:21:17 51°11.328 2°42.387 13.8 318 15.4 100620 95
2008-08-18 08:21:22 51°11.32 2°42.376 13.3 279 15.4 100620 95
2008-08-18 08:21:27 51°11.313 2°42.365 11.4 38 15.4 100630 96
2008-08-18 08:21:32 51°11.305 2°42.354 13.2 280 15.4 100630 96
2008-08-18 08:21:37 51°11.298 2°42.344 13.8 315 15.4 100630 96
2008-08-18 08:21:42 51°11.291 2°42.334 14 285 15.4 100630 96
2008-08-18 08:21:47 51°11.283 2°42.324 11.7 316 15.4 100620 95
2008-08-18 08:21:52 51°11.276 2°42.314 13.5 280 15.4 100620 95
2008-08-18 08:21:57 51°11.269 2°42.304 13.1 317 15.3 100620 95
2008-08-18 08:22:02 51°11.262 2°42.294 12.8 282 15.3 100620 95
2008-08-18 08:22:07 51°11.256 2°42.285 11.3 317 15.3 100620 95
2008-08-18 08:22:12 51°11.249 2°42.275 12.7 282 15.3 100620 95
2008-08-18 08:22:17 51°11.242 2°42.266 12.9 316 15.3 100620 95
2008-08-18 08:22:22 51°11.235 2°42.256 12.9 278 15.3 100620 95
2008-08-18 08:22:27 51°11.229 2°42.247 12.3 317 15.3 100620 95
2008-08-18 08:22:32 51°11.222 2°42.238 10.5 281 15.3 100620 95
2008-08-18 08:22:37 51°11.215 2°42.229 11.1 318 15.3 100620 95
2008-08-18 08:22:42 51°11.208 2°42.221 10.1 279 15.3 100620 95
2008-08-18 08:22:47 51°11.202 2°42.212 10.9 318 15.3 100620 95
2008-08-18 08:22:52 51°11.195 2°42.204 10.7 280 15.3 100620 95
2008-08-18 08:22:57 51°11.188 2°42.196 10.1 319 15.3 100620 95
2008-08-18 08:23:02 51°11.181 2°42.188 9.8 278 15.3 100620 95
2008-08-18 08:23:07 51°11.174 2°42.18 11.5 322 15.3 100630 95
2008-08-18 08:23:12 51°11.168 2°42.173 10.2 279 15.3 100630 95
2008-08-18 08:23:17 51°11.162 2°42.166 11.6 322 15.3 100630 95
2008-08-18 08:23:22 51°11.155 2°42.159 11.2 286 15.3 100630 95
2008-08-18 08:23:27 51°11.149 2°42.152 10.2 320 15.3 100630 95
2008-08-18 08:23:32 51°11.143 2°42.146 11.7 279 15.3 100630 95
2008-08-18 08:23:37 51°11.138 2°42.14 9.3 320 15.4 100640 96
2008-08-18 08:23:42 51°11.133 2°42.135 10.8 285 15.4 100640 96
2008-08-18 08:23:47 51°11.128 2°42.129 11.2 320 15.4 100640 96
2008-08-18 08:23:52 51°11.123 2°42.124 10.8 285 15.4 100640 96
2008-08-18 08:23:57 51°11.118 2°42.119 11.3 326 15.4 100630 96
2008-08-18 08:24:02 51°11.114 2°42.115 9 282 15.4 100630 96
2008-08-18 08:24:07 51°11.11 2°42.111 10.1 327 15.3 100640 95
2008-08-18 08:24:12 51°11.107 2°42.108 9.9 278 15.3 100640 95
2008-08-18 08:24:17 51°11.104 2°42.104 8.5 332 15.3 100640 95
2008-08-18 08:24:22 51°11.101 2°42.102 8.6 278 15.3 100640 95
2008-08-18 08:24:27 51°11.1 2°42.099 7.1 333 15.3 100640 95
2008-08-18 08:24:32 51°11.098 2°42.097 7.5 278 15.3 100640 95
2008-08-18 08:24:37 51°11.098 2°42.095 7.2 335 15.4 100640 95
2008-08-18 08:24:42 51°11.098 2°42.092 8.8 278 15.4 100640 95
2008-08-18 08:24:47 51°11.098 2°42.09 8.5 332 15.3 100650 95
2008-08-18 08:24:52 51°11.099 2°42.088 8.9 284 15.3 100650 95
2008-08-18 08:24:57 51°11.1 2°42.086 8.4 333 15.4 100650 96
2008-08-18 08:25:02 51°11.101 2°42.084 8.5 285 15.4 100650 96
2008-08-18 08:25:08 51°11.102 2°42.081 7.7 336 15.4 100650 96
2008-08-18 08:25:14 51°11.103 2°42.078 7.1 285 15.4 100650 96
2008-08-18 08:25:19 51°11.104 2°42.076 7.6 337 15.3 100650 96
2008-08-18 08:25:24 51°11.105 2°42.074 8 286 15.3 100650 96
2008-08-18 08:25:30 51°11.106 2°42.071 7.5 340 15.3 100650 95
2008-08-18 08:25:36 51°11.107 2°42.069 7.6 278 15.3 100650 95
2008-08-18 08:25:40 51°11.108 2°42.067 6.2 336 15.3 100650 95
2008-08-18 08:25:45 51°11.108 2°42.065 6.2 277 15.3 100650 95
2008-08-18 08:25:50 51°11.109 2°42.063 6.4 336 15.3 100650 95
2008-08-18 08:25:55 51°11.11 2°42.06 6.6 284 15.3 100650 95
2008-08-18 08:25:59 51°11.111 2°42.059 7.9 339 15.3 100650 95
2008-08-18 08:26:04 51°11.112 2°42.056 7.3 282 15.3 100650 95
2008-08-18 08:26:09 51°11.112 2°42.054 7.1 338 15.3 100650 96
2008-08-18 08:26:14 51°11.113 2°42.052 7.2 280 15.3 100650 96
2008-08-18 08:26:18 51°11.114 2°42.05 8.5 340 15.4 100650 96
2008-08-18 08:26:23 51°11.115 2°42.048 7.5 280 15.4 100650 96
2008-08-18 08:26:28 51°11.116 2°42.046 6.7 343 15.3 100650 96
2008-08-18 08:26:33 51°11.117 2°42.044 7.9 283 15.3 100650 96
2008-08-18 08:26:38 51°11.118 2°42.042 8.2 346 15.3 100650 96
2008-08-18 08:26:42 51°11.118 2°42.04 8 281 15.3 100650 96
2008-08-18 08:26:47 51°11.119 2°42.038 7 345 15.3 100640 96
2008-08-18 08:26:52 51°11.12 2°42.036 8.4 281 15.3 100640 96
2008-08-18 08:26:57 51°11.121 2°42.033 6.9 344 15.3 100640 95
2008-08-18 08:27:02 51°11.122 2°42.031 8.3 348 15.3 100640 95
2008-08-18 08:27:07 51°11.123 2°42.029 7.8 346 15.3 100640 95
2008-08-18 08:27:12 51°11.124 2°42.026 7.8 279 15.3 100640 95
2008-08-18 08:27:17 51°11.125 2°42.024 6.9 348 15.3 100640 95
2008-08-18 08:27:22 51°11.126 2°42.022 7.7 282 15.3 100640 95
2008-08-18 08:27:27 51°11.127 2°42.019 7.1 350 15.2 100640 95
2008-08-18 08:27:32 51°11.128 2°42.017 6.4 350 15.2 100640 95
2008-08-18 08:27:37 51°11.129 2°42.015 8.7 355 15.3 100640 95
2008-08-18 08:27:42 51°11.13 2°42.012 8.3 353 15.3 100640 95
2008-08-18 08:27:47 51°11.131 2°42.009 8.4 352 15.3 100650 96
2008-08-18 08:27:52 51°11.132 2°42.007 7.8 355 15.3 100650 96
2008-08-18 08:27:57 51°11.133 2°42.004 7.4 354 15.3 100650 96
2008-08-18 08:28:02 51°11.133 2°42.002 7.2 -999 15.3 100650 96
2008-08-18 08:28:07 51°11.134 2°41.999 7.9 359 15.3 100640 96
2008-08-18 08:28:12 51°11.135 2°41.997 7.7 359 15.3 100640 96
2008-08-18 08:28:17 51°11.136 2°41.994 8.5 360 15.3 100640 96
2008-08-18 08:28:22 51°11.137 2°41.991 7.4 1 15.3 100640 96
2008-08-18 08:28:27 51°11.137 2°41.988 7 5 15.3 100640 96
2008-08-18 08:28:32 51°11.138 2°41.985 6.4 6 15.3 100640 96
2008-08-18 08:28:37 51°11.138 2°41.983 8.1 5 15.3 100640 95
2008-08-18 08:28:42 51°11.138 2°41.982 8.6 17 15.3 100640 95
2008-08-18 08:28:47 51°11.138 2°41.981 8.5 5 15.2 100650 95
2008-08-18 08:28:52 51°11.137 2°41.982 7.3 3 15.2 100650 95
2008-08-18 08:28:57 51°11.135 2°41.984 8.5 -999 15.2 100650 95
2008-08-18 08:29:02 51°11.133 2°41.988 8.6 358 15.2 100650 95
2008-08-18 08:29:07 51°11.13 2°41.992 10.2 355 15.2 100650 95
2008-08-18 08:29:12 51°11.125 2°41.997 8.8 278 15.2 100650 95
2008-08-18 08:29:17 51°11.12 2°42 10.3 344 15.2 100640 96
2008-08-18 08:29:22 51°11.113 2°42.004 9.7 280 15.2 100640 96
2008-08-18 08:29:27 51°11.105 2°42.006 11 340 15.3 100640 96
2008-08-18 08:29:32 51°11.097 2°42.009 11.1 278 15.3 100640 96
2008-08-18 08:29:37 51°11.088 2°42.012 9.4 340 15.3 100630 96
2008-08-18 08:29:42 51°11.078 2°42.015 10.9 285 15.3 100630 96
2008-08-18 08:29:47 51°11.068 2°42.02 11.3 339 15.3 100630 96
2008-08-18 08:29:52 51°11.057 2°42.024 10.9 282 15.3 100630 96
2008-08-18 08:29:57 51°11.046 2°42.029 11.8 339 15.4 100640 96
2008-08-18 08:30:02 51°11.035 2°42.034 10.8 281 15.4 100640 96
2008-08-18 08:30:07 51°11.023 2°42.04 11.5 339 15.4 100620 96
2008-08-18 08:30:12 51°11.012 2°42.046 12.5 283 15.4 100620 96
2008-08-18 08:30:17 51°11 2°42.052 10.5 342 15.4 100620 96
2008-08-18 08:30:22 51°10.988 2°42.058 12 283 15.4 100620 96
2008-08-18 08:30:27 51°10.975 2°42.064 11.4 341 15.4 100620 96
2008-08-18 08:30:32 51°10.963 2°42.071 12 276 15.4 100620 96
2008-08-18 08:30:37 51°10.951 2°42.077 11.8 343 15.4 100620 96
2008-08-18 08:30:42 51°10.939 2°42.085 13.9 277 15.4 100620 96
2008-08-18 08:30:47 51°10.926 2°42.092 13.8 339 15.4 100620 96
2008-08-18 08:30:52 51°10.914 2°42.1 13.2 280 15.4 100620 96
2008-08-18 08:30:57 51°10.902 2°42.107 13.4 339 15.4 100620 96
2008-08-18 08:31:02 51°10.89 2°42.115 12.9 280 15.4 100620 96
2008-08-18 08:31:07 51°10.878 2°42.123 13.3 340 15.4 100620 96
2008-08-18 08:31:12 51°10.866 2°42.131 13.1 277 15.4 100620 96
2008-08-18 08:31:17 51°10.854 2°42.139 13.3 339 15.4 100620 96
2008-08-18 08:31:22 51°10.841 2°42.147 14.9 285 15.4 100620 96
2008-08-18 08:31:27 51°10.829 2°42.155 11.9 341 15.4 100610 96
2008-08-18 08:31:32 51°10.817 2°42.163 13.5 286 15.4 100610 96
2008-08-18 08:31:37 51°10.805 2°42.171 13.9 343 15.4 100620 96
2008-08-18 08:31:42 51°10.793 2°42.179 12.9 282 15.4 100620 96
2008-08-18 08:31:47 51°10.78 2°42.188 12.9 345 15.4 100610 96
2008-08-18 08:31:52 51°10.768 2°42.196 13 282 15.4 100610 96
2008-08-18 08:31:57 51°10.756 2°42.205 11.5 343 15.3 100610 96
2008-08-18 08:32:02 51°10.744 2°42.214 13.1 346 15.3 100610 96
2008-08-18 08:32:07 51°10.732 2°42.223 13.2 344 15.4 100620 96
2008-08-18 08:32:12 51°10.721 2°42.233 13.1 282 15.4 100620 96
2008-08-18 08:32:17 51°10.709 2°42.243 13.7 344 15.3 100620 96
2008-08-18 08:32:22 51°10.697 2°42.252 14.1 279 15.3 100620 96
2008-08-18 08:32:27 51°10.686 2°42.262 11.6 342 15.3 100630 96
2008-08-18 08:32:32 51°10.674 2°42.271 11.3 277 15.3 100630 96
2008-08-18 08:32:37 51°10.662 2°42.28 13.4 341 15.3 100620 96
2008-08-18 08:32:42 51°10.65 2°42.29 12.7 286 15.3 100620 96
2008-08-18 08:32:47 51°10.638 2°42.299 12.9 344 15.4 100610 96
2008-08-18 08:32:52 51°10.626 2°42.308 12.7 284 15.4 100610 96
2008-08-18 08:32:57 51°10.614 2°42.317 11.2 341 15.4 100620 96
2008-08-18 08:33:02 51°10.603 2°42.326 12.9 -999 15.4 100620 96
2008-08-18 08:33:07 51°10.591 2°42.335 13.6 341 15.4 100620 96
2008-08-18 08:33:12 51°10.579 2°42.345 12.9 286 15.4 100620 96
2008-08-18 08:33:17 51°10.567 2°42.354 11.2 344 15.4 100630 96
2008-08-18 08:33:22 51°10.555 2°42.364 11.8 345 15.4 100630 96
2008-08-18 08:33:27 51°10.543 2°42.373 13.1 342 15.4 100620 96
2008-08-18 08:33:32 51°10.532 2°42.383 11.7 277 15.4 100620 96
2008-08-18 08:33:37 51°10.52 2°42.392 12.5 343 15.3 100620 96
2008-08-18 08:33:42 51°10.508 2°42.402 12 280 15.3 100620 96
2008-08-18 08:33:47 51°10.497 2°42.412 13.2 344 15.4 100630 96
2008-08-18 08:33:52 51°10.485 2°42.422 13.8 284 15.4 100630 96
2008-08-18 08:33:57 51°10.473 2°42.432 13.6 344 15.4 100620 96
2008-08-18 08:34:02 51°10.462 2°42.441 13.6 345 15.4 100620 96
2008-08-18 08:34:07 51°10.451 2°42.45 12.1 343 15.4 100630 96
2008-08-18 08:34:12 51°10.441 2°42.459 11.6 283 15.4 100630 96
2008-08-18 08:34:17 51°10.431 2°42.467 10.3 345 15.4 100620 96
2008-08-18 08:34:22 51°10.422 2°42.475 11 278 15.4 100620 96
2008-08-18 08:34:27 51°10.413 2°42.482 10.1 342 15.3 100630 96
2008-08-18 08:34:32 51°10.405 2°42.488 10.8 283 15.3 100630 96
2008-08-18 08:34:37 51°10.397 2°42.494 10.5 341 15.3 100630 96
2008-08-18 08:34:42 51°10.39 2°42.499 10 281 15.3 100630 96
2008-08-18 08:34:47 51°10.383 2°42.504 10.4 342 15.3 100640 96
2008-08-18 08:34:52 51°10.376 2°42.508 10.9 280 15.3 100640 96
2008-08-18 08:34:57 51°10.369 2°42.511 11.2 346 15.3 100640 96
2008-08-18 08:35:02 51°10.363 2°42.515 9.4 282 15.3 100640 96
2008-08-18 08:35:07 51°10.357 2°42.518 9.5 347 15.3 100640 96
2008-08-18 08:35:12 51°10.351 2°42.521 9.2 284 15.3 100640 96
2008-08-18 08:35:17 51°10.345 2°42.524 8.5 343 15.3 100640 96
2008-08-18 08:35:22 51°10.34 2°42.526 8.2 286 15.3 100640 96
2008-08-18 08:35:27 51°10.335 2°42.529 8.3 343 15.3 100630 96
2008-08-18 08:35:32 51°10.331 2°42.532 9.1 346 15.3 100630 96
2008-08-18 08:35:37 51°10.326 2°42.534 9 346 15.3 100640 96
2008-08-18 08:35:42 51°10.322 2°42.537 8.2 277 15.3 100640 96
2008-08-18 08:35:47 51°10.318 2°42.54 9.8 350 15.3 100640 96
2008-08-18 08:35:52 51°10.315 2°42.543 10.9 352 15.3 100640 96
2008-08-18 08:35:57 51°10.311 2°42.546 10.2 356 15.3 100640 96
2008-08-18 08:36:02 51°10.308 2°42.549 9.6 1 15.3 100640 96
2008-08-18 08:36:07 51°10.305 2°42.553 8.5 1 15.3 100640 96
2008-08-18 08:36:12 51°10.302 2°42.557 8.2 355 15.3 100640 96
2008-08-18 08:36:17 51°10.299 2°42.561 9.4 359 15.3 100640 96
2008-08-18 08:36:22 51°10.296 2°42.565 9 354 15.3 100640 96
2008-08-18 08:36:27 51°10.293 2°42.57 9.7 357 15.3 100650 96
2008-08-18 08:36:32 51°10.29 2°42.574 9 357 15.3 100650 96
2008-08-18 08:36:37 51°10.287 2°42.579 8.9 359 15.2 100640 96
2008-08-18 08:36:42 51°10.284 2°42.585 9.5 3 15.2 100640 96
2008-08-18 08:36:47 51°10.281 2°42.59 8 357 15.2 100650 96
2008-08-18 08:36:52 51°10.278 2°42.595 9.8 358 15.2 100650 96
2008-08-18 08:36:57 51°10.275 2°42.6 9.4 356 15.2 100650 96
2008-08-18 08:37:02 51°10.271 2°42.606 9.4 357 15.2 100650 96
2008-08-18 08:37:07 51°10.268 2°42.612 9.3 358 15.2 100640 96
2008-08-18 08:37:12 51°10.264 2°42.618 8.2 354 15.2 100640 96
2008-08-18 08:37:17 51°10.26 2°42.624 8.2 358 15.2 100640 96
2008-08-18 08:37:22 51°10.257 2°42.63 7 351 15.2 100640 96
2008-08-18 08:37:27 51°10.253 2°42.637 7.9 352 15.2 100640 96
2008-08-18 08:37:32 51°10.249 2°42.644 7.8 353 15.2 100640 96
2008-08-18 08:37:37 51°10.245 2°42.652 7.8 356 15.2 100650 96
2008-08-18 08:37:42 51°10.242 2°42.659 8.1 354 15.2 100650 96
2008-08-18 08:37:47 51°10.238 2°42.667 7.6 356 15.2 100640 96
2008-08-18 08:37:52 51°10.234 2°42.675 8.1 360 15.2 100640 96
2008-08-18 08:37:57 51°10.23 2°42.683 8 -999 15.3 100650 96
2008-08-18 08:38:02 51°10.226 2°42.691 7.2 357 15.3 100650 96
2008-08-18 08:38:07 51°10.222 2°42.699 7.2 353 15.3 100650 97
2008-08-18 08:38:12 51°10.218 2°42.707 8.2 354 15.3 100650 97
2008-08-18 08:38:17 51°10.214 2°42.715 8.4 352 15.3 100640 97
2008-08-18 08:38:22 51°10.209 2°42.723 8.1 353 15.3 100640 97
2008-08-18 08:38:27 51°10.205 2°42.73 9 355 15.3 100650 97
2008-08-18 08:38:32 51°10.201 2°42.737 8.1 354 15.3 100650 97
2008-08-18 08:38:37 51°10.197 2°42.744 9.5 353 15.3 100650 97
2008-08-18 08:38:42 51°10.193 2°42.75 9.8 351 15.3 100650 97
2008-08-18 08:38:47 51°10.189 2°42.756 9 351 15.3 100650 97
2008-08-18 08:38:52 51°10.186 2°42.762 9.7 280 15.3 100650 97
2008-08-18 08:38:57 51°10.182 2°42.768 9 353 15.3 100650 97
2008-08-18 08:39:02 51°10.178 2°42.774 9.9 358 15.3 100650 97
2008-08-18 08:39:07 51°10.174 2°42.779 9.5 358 15.3 100650 97
2008-08-18 08:39:12 51°10.171 2°42.784 9 359 15.3 100650 97
2008-08-18 08:39:17 51°10.167 2°42.789 7.6 358 15.3 100650 97
2008-08-18 08:39:22 51°10.164 2°42.793 8 357 15.3 100650 97
2008-08-18 08:39:27 51°10.161 2°42.797 8 357 15.3 100650 97
2008-08-18 08:39:32 51°10.158 2°42.801 7.2 355 15.3 100650 97
2008-08-18 08:39:37 51°10.155 2°42.803 7 352 15.2 100640 96
2008-08-18 08:39:42 51°10.153 2°42.806 6.9 284 15.2 100640 96
2008-08-18 08:39:47 51°10.151 2°42.807 6.8 346 15.2 100650 96
2008-08-18 08:39:52 51°10.149 2°42.808 6.6 279 15.2 100650 96
2008-08-18 08:39:57 51°10.147 2°42.808 7.6 346 15.2 100650 97
2008-08-18 08:40:02 51°10.146 2°42.808 7.7 282 15.2 100650 97